Theta_e
348 350 352 354 356 356 357 357 357 357 357 357 357 356 356 355 355 354 351 346 344 345 346 347 347 347 347 347 346 345 345 343 342 340 339 339 339 340 338 336 336 336 335 334 333 334 336 340 343 340 339 341 342 341 343 344 344 344 344 344 344 343 342
346 348 350 353 355 355 356 357 357 357 357 357 357 356 356 356 354 353 351 347 345 345 346 347 347 347 347 347 346 346 345 344 343 343 343 344 344 342 340 338 337 337 336 336 334 334 336 338 340 339 339 341 342 341 342 345 345 344 344 344 344 344 343
344 346 348 351 354 354 355 356 356 357 356 357 357 356 355 354 352 350 349 348 345 345 346 347 347 347 347 347 347 346 346 346 346 347 347 347 346 343 340 338 338 339 339 337 335 335 336 338 339 339 339 339 341 341 342 344 344 343 343 343 344 344 342
342 344 346 349 353 354 354 356 356 356 356 356 356 354 353 352 351 350 349 347 345 344 344 345 346 347 347 346 347 347 347 347 348 348 348 348 347 345 343 340 340 341 340 337 336 337 337 338 339 339 339 338 339 340 341 343 343 343 343 342 344 344 340
341 343 344 348 352 354 355 355 355 355 356 356 355 354 353 353 352 352 350 347 345 344 344 344 345 346 346 346 346 347 347 347 348 348 348 349 348 347 346 344 343 343 341 338 338 338 338 339 339 339 339 339 340 340 341 341 341 342 342 342 344 343 340
338 340 342 345 349 352 354 355 355 355 354 354 355 355 355 355 354 353 351 347 346 346 345 344 345 346 346 346 346 346 347 347 348 348 348 349 349 348 347 346 345 344 343 340 339 340 340 340 339 339 339 340 340 339 340 340 340 341 341 343 344 342 342
336 340 340 341 345 350 353 354 354 354 354 354 355 356 356 356 355 354 353 351 348 348 347 344 344 345 345 346 346 347 347 347 347 348 348 349 349 349 348 347 346 345 345 344 343 342 342 341 340 339 339 339 339 339 339 338 338 339 340 342 343 341 342
335 339 340 340 342 345 350 354 354 353 354 354 354 355 356 355 355 355 355 354 352 350 349 348 346 344 344 345 345 346 346 347 347 347 348 348 349 349 349 348 346 346 346 346 345 343 342 342 340 339 338 339 338 339 339 338 338 339 339 341 342 340 340
335 337 341 342 341 342 348 353 354 354 354 354 353 355 355 355 355 355 355 355 354 352 350 350 350 347 344 344 345 345 346 346 347 347 348 348 348 349 349 348 347 346 346 346 345 344 342 342 341 339 338 338 338 338 338 338 339 339 338 339 339 338 338
335 339 343 343 340 343 348 352 354 354 354 355 354 354 355 355 355 355 355 355 355 353 352 352 354 352 347 344 344 345 346 346 347 347 347 348 349 349 350 350 349 347 346 346 347 345 342 341 341 340 338 338 338 338 338 338 338 338 337 337 336 336 336
336 341 345 344 342 345 348 351 354 354 354 355 354 354 355 355 355 356 355 355 354 355 355 354 355 355 352 347 345 345 345 345 347 348 347 348 350 351 351 352 353 350 346 345 347 347 343 340 340 339 338 338 338 337 337 337 337 337 337 336 335 334 333
341 345 350 349 348 349 348 350 354 355 355 355 354 354 354 354 355 355 355 355 355 354 356 356 355 356 355 352 349 347 345 345 347 348 348 347 350 353 353 354 354 353 348 344 345 347 344 340 339 339 338 338 338 338 337 337 337 336 336 337 335 333 332
338 340 346 349 348 349 350 352 355 356 355 355 354 354 354 355 355 354 355 355 355 355 356 356 356 357 356 355 352 349 346 345 346 347 348 347 349 353 355 354 355 355 352 346 344 346 346 342 339 338 339 338 338 339 338 338 338 337 336 336 336 334 332
340 337 340 344 347 348 350 353 356 357 356 355 355 354 355 355 354 354 355 355 355 356 356 356 357 357 357 356 354 351 347 346 346 346 347 348 348 351 354 355 355 356 355 350 344 346 347 345 341 338 338 339 338 339 339 339 339 338 336 336 335 334 332
348 343 340 341 346 349 352 353 356 359 356 354 355 355 354 355 354 354 355 355 355 355 355 357 357 357 357 356 353 351 348 348 347 346 346 347 347 348 350 353 354 354 354 350 345 345 346 346 345 341 337 338 338 338 339 339 338 337 336 335 334 333 331
354 352 350 347 346 348 350 353 356 357 355 353 354 355 355 355 355 355 355 355 356 355 355 357 357 357 357 355 352 350 349 349 348 346 346 347 347 347 348 350 350 351 351 349 345 345 345 346 347 345 341 337 337 338 337 337 336 335 334 333 332 332 331
355 357 358 358 354 351 349 351 354 357 355 350 351 354 354 355 355 355 355 356 356 355 356 356 356 356 355 354 353 351 349 348 347 347 346 346 346 347 347 348 349 348 349 348 347 346 345 346 346 347 347 343 339 337 336 334 334 333 332 331 330 330 330
355 356 357 359 360 359 355 350 350 356 356 350 349 352 354 355 356 355 355 356 356 356 356 356 357 356 354 354 353 351 348 347 347 347 347 346 347 347 347 347 348 348 348 348 348 347 346 347 346 346 348 348 345 342 339 334 332 331 331 330 329 329 329
352 354 356 358 359 360 359 353 348 352 355 352 350 352 352 354 355 354 355 356 356 356 356 357 358 356 354 354 353 350 348 347 347 347 347 347 346 346 347 347 348 348 348 348 348 348 347 347 347 346 346 348 347 345 342 338 333 330 330 329 328 329 329
346 349 352 355 357 359 360 356 348 347 353 355 352 351 352 353 354 354 355 356 356 356 356 357 359 357 354 352 351 349 348 347 347 348 347 347 347 347 346 347 347 348 348 348 349 348 348 348 348 347 347 347 345 343 343 341 335 330 330 330 329 329 329
342 344 348 353 357 358 359 357 350 343 349 355 353 352 354 354 355 355 355 356 356 357 357 357 359 358 354 351 350 349 348 347 347 347 348 347 347 347 347 347 348 348 348 349 349 348 348 348 348 348 347 347 346 344 342 339 335 331 330 330 330 330 330
339 341 345 350 355 357 358 358 351 343 344 352 354 353 354 355 356 355 355 356 356 356 357 358 358 358 355 351 349 348 347 347 347 348 348 348 348 348 347 347 348 348 348 349 350 350 349 348 348 349 348 347 346 346 343 339 335 333 331 330 330 331 331
338 341 345 350 354 357 358 355 351 345 344 351 353 352 353 355 355 355 355 355 356 357 357 357 357 356 353 350 348 347 347 347 347 348 348 348 348 348 348 347 347 348 348 348 350 352 350 348 348 348 348 347 347 346 344 340 336 334 331 331 331 331 332
340 342 346 351 355 357 357 354 350 347 348 352 353 352 353 355 355 355 355 355 356 357 357 357 356 353 351 349 348 347 347 347 347 348 348 349 349 348 348 348 348 348 348 347 349 351 351 349 349 348 348 348 348 347 345 342 340 337 333 333 333 333 334
339 342 346 352 355 356 357 356 351 348 350 354 353 351 354 355 354 355 356 356 357 357 358 357 354 351 348 348 347 347 347 348 347 348 348 348 349 349 348 348 348 348 348 348 348 350 350 350 350 350 350 350 350 349 347 345 345 342 337 336 336 336 336
335 340 347 353 354 354 357 357 353 351 352 353 353 353 355 355 355 355 356 357 358 358 357 354 350 348 348 348 348 348 348 348 348 348 349 349 349 349 349 349 349 349 348 348 348 349 350 350 351 352 353 353 353 352 350 349 349 347 342 339 339 339 340
336 341 347 352 353 354 357 358 355 352 352 353 353 354 355 355 355 356 356 356 356 355 354 352 349 348 349 348 348 348 348 348 348 348 349 349 349 349 350 349 349 349 349 349 350 350 349 351 353 355 356 356 357 356 354 353 353 352 347 344 343 343 345
335 340 345 351 353 354 357 359 356 352 352 354 354 355 355 355 355 357 356 354 352 351 352 354 351 349 348 348 348 349 348 348 349 349 349 350 349 350 350 349 350 351 351 351 353 354 352 352 354 357 359 359 359 359 358 357 356 355 354 351 350 349 350
332 339 345 349 352 354 356 359 359 356 353 355 356 354 355 357 356 355 353 349 349 352 354 354 351 349 348 348 348 349 349 348 349 349 349 350 350 350 350 350 351 353 353 353 355 357 356 355 355 356 358 360 360 359 360 360 359 358 357 357 356 355 355
332 339 344 348 352 354 356 358 361 361 356 355 357 356 357 358 357 353 351 350 351 354 355 354 351 349 349 349 348 349 349 349 349 350 350 350 350 350 350 350 351 354 355 353 354 357 357 357 358 358 359 360 361 361 361 362 361 360 359 359 360 359 359
330 336 341 347 351 354 356 357 359 361 360 358 357 357 358 360 358 353 353 354 351 352 355 355 353 351 349 349 349 350 349 349 350 350 350 351 351 351 351 351 351 354 355 355 355 357 358 359 360 361 362 362 362 363 363 363 363 362 361 360 360 361 361
328 336 342 346 350 354 357 358 357 359 361 360 359 359 359 360 360 356 354 354 352 352 355 355 352 350 350 349 350 350 350 351 351 350 351 351 351 352 352 352 353 354 354 356 359 360 361 361 362 363 363 363 363 364 364 364 365 365 364 362 361 362 361
325 334 341 344 346 351 355 358 358 358 360 360 361 361 361 362 363 360 356 353 352 353 355 355 352 350 350 349 350 350 351 351 351 351 352 352 352 353 353 352 353 355 354 355 359 360 361 363 363 363 363 363 363 364 364 364 365 366 365 364 362 362 362
322 331 340 344 345 348 351 355 357 357 357 358 359 361 363 363 364 363 358 353 352 353 353 353 352 350 350 351 351 352 352 352 352 352 354 354 353 355 357 357 356 357 357 356 358 361 362 362 363 363 363 364 364 364 365 365 365 366 366 365 364 363 362
319 326 336 342 345 346 348 352 355 356 357 358 357 359 361 360 359 359 356 352 352 352 351 351 351 351 352 354 356 357 356 355 355 355 357 360 359 358 360 362 361 362 362 360 360 361 362 362 363 363 363 364 364 365 365 365 365 365 365 365 365 363 362
317 323 332 341 345 345 346 348 351 354 357 358 357 358 358 356 355 355 355 355 354 353 352 352 352 353 356 359 361 362 360 358 360 360 360 364 365 361 358 360 362 363 364 365 364 362 362 363 364 364 365 365 365 365 365 366 366 365 365 364 363 362 362
316 319 328 339 344 344 345 346 347 350 352 354 356 357 357 358 358 358 358 359 359 357 357 358 356 357 361 364 365 365 362 359 360 361 360 362 366 364 359 358 360 361 361 363 364 363 362 362 363 363 363 364 365 365 365 364 364 364 364 363 362 361 361
317 317 323 334 341 343 344 344 345 347 348 348 351 353 354 356 358 358 358 361 361 362 363 362 360 360 364 366 366 366 366 363 363 364 364 363 364 363 361 359 359 360 360 361 362 362 362 361 360 361 361 362 363 364 364 363 363 362 363 362 362 362 362
Wind_Speed
24 25 26 26 27 29 32 35 36 36 37 38 38 38 38 38 38 39 42 45 46 44 43 42 41 41 40 40 39 39 39 38 37 36 36 35 34 34 33 30 28 27 26 26 26 25 25 23 20 19 17 16 17 17 16 15 14 13 12 11 10 9 9
23 24 25 26 27 29 32 34 35 35 36 37 37 38 39 39 40 42 43 46 46 44 43 42 42 41 40 39 38 38 37 36 36 35 35 34 34 34 33 31 29 27 26 26 26 26 26 23 21 19 18 17 17 17 16 15 15 14 13 12 11 11 11
23 24 25 26 28 30 32 33 34 35 36 36 37 39 41 42 44 45 46 46 46 44 43 43 43 42 40 39 38 38 37 36 35 35 34 33 33 32 32 31 29 27 26 26 27 27 26 23 21 20 19 18 18 17 17 16 15 15 14 13 12 12 12
23 24 25 26 28 30 32 33 35 36 36 37 40 42 44 45 45 45 46 47 46 45 44 44 43 42 41 40 39 38 37 36 35 35 34 32 32 31 31 31 29 28 27 26 27 27 26 24 22 21 20 19 19 18 18 17 16 15 14 13 13 13 13
25 24 24 25 27 29 30 33 35 36 36 37 39 41 42 43 43 43 45 46 45 44 43 43 43 42 41 41 40 39 38 37 36 35 34 33 32 31 31 31 30 29 28 27 27 27 26 25 24 23 21 20 20 20 19 18 17 16 15 14 14 14 14
28 27 26 25 25 27 29 32 35 36 37 37 38 39 39 40 41 42 43 44 44 43 43 43 43 42 42 41 40 39 38 37 36 35 34 33 32 32 31 31 31 30 29 28 28 27 27 26 25 25 23 21 20 20 20 20 19 18 17 16 16 16 15
27 28 29 27 26 27 29 32 34 36 37 36 36 36 36 38 39 40 40 42 43 43 43 43 43 43 43 42 41 40 39 38 36 35 34 33 32 32 32 32 32 31 29 28 28 28 27 27 26 26 25 23 22 21 21 21 21 20 19 18 17 17 17
25 26 27 28 29 29 29 32 34 35 35 34 34 35 36 37 38 38 39 40 41 41 42 43 43 45 44 43 42 41 40 38 37 35 34 33 33 33 32 32 32 31 30 29 28 27 27 27 27 27 26 24 24 23 23 23 22 20 20 19 19 19 19
24 25 26 27 28 29 29 31 33 33 33 34 35 37 38 38 38 39 40 40 39 41 43 42 42 44 45 44 43 42 40 39 38 36 35 34 33 33 32 32 31 31 30 29 28 27 27 27 27 28 27 26 26 25 25 24 22 21 21 21 20 20 20
24 25 26 26 26 27 28 28 29 30 32 35 37 37 37 38 38 39 39 38 39 40 42 41 40 41 44 44 43 41 41 40 38 37 35 34 34 33 32 31 30 31 30 29 27 27 27 27 28 28 29 28 28 28 27 26 24 23 22 22 21 21 20
21 24 25 25 25 25 26 26 27 30 33 36 37 36 37 38 38 37 38 39 40 39 39 39 38 39 41 43 42 41 41 40 39 38 36 34 34 33 32 30 29 30 31 29 28 27 28 28 29 29 30 30 30 29 29 28 26 25 24 23 23 22 22
9 13 16 17 19 21 22 24 27 31 35 38 38 37 37 39 38 37 38 39 39 37 38 39 38 38 39 41 41 41 41 41 40 39 37 35 34 32 31 30 29 29 31 31 29 28 28 29 30 30 31 31 31 30 30 29 28 27 26 25 24 24 24
2 6 9 12 14 17 19 22 25 29 34 37 37 37 38 39 38 37 38 38 37 36 37 38 38 38 39 40 40 41 41 40 40 39 38 36 35 33 31 30 30 29 30 31 30 29 29 30 31 32 32 32 31 30 30 30 29 29 28 27 26 26 26
1 5 7 10 14 17 20 23 25 28 33 34 34 34 35 36 37 37 37 38 37 36 37 38 38 39 39 39 40 41 41 40 40 39 39 37 36 35 32 31 30 29 30 31 31 29 29 30 32 33 33 32 32 31 30 30 30 30 30 29 28 28 28
3 2 4 8 14 19 22 25 27 30 34 34 33 33 33 33 35 35 35 36 36 36 36 37 38 38 39 40 41 41 41 40 39 39 39 39 38 37 35 34 33 32 31 32 32 30 29 29 30 32 33 32 32 31 31 31 31 31 31 31 30 30 30
9 7 5 3 8 16 22 25 28 31 35 35 34 35 34 33 34 35 35 36 37 37 37 37 38 39 40 41 43 43 41 40 40 39 39 39 39 38 36 36 35 34 34 34 32 30 30 30 30 30 31 32 31 31 31 32 32 33 32 31 30 30 30
14 13 12 10 8 9 16 22 27 30 34 37 38 37 36 35 35 36 36 36 38 38 38 38 40 41 42 42 42 43 41 40 40 39 39 39 39 38 37 36 36 35 35 34 33 31 31 31 31 30 29 29 30 30 31 33 33 33 32 30 30 29 30
18 18 17 15 14 12 13 17 24 28 33 38 39 38 38 37 36 36 36 36 38 38 38 38 39 42 43 42 41 42 42 41 40 39 39 39 39 38 36 36 36 36 35 35 33 33 32 32 32 32 30 29 29 29 30 32 33 33 32 31 30 29 29
20 20 20 19 18 17 17 17 20 27 32 36 38 39 40 40 39 39 39 38 38 37 37 37 38 40 42 41 41 43 42 41 40 39 39 39 38 37 36 36 36 36 35 35 34 33 34 33 33 33 32 31 30 30 30 31 32 32 32 31 30 30 29
21 22 22 21 20 20 20 19 20 25 30 33 36 38 39 39 39 38 37 35 35 36 37 36 36 38 42 43 42 43 42 40 40 40 39 39 38 37 37 37 36 36 35 35 34 34 34 34 33 33 33 33 33 32 31 31 32 32 32 31 31 30 30
22 23 23 23 22 22 22 22 21 24 28 31 33 34 35 35 35 34 33 34 35 36 37 37 36 37 41 43 42 42 41 40 40 40 39 39 39 38 38 37 36 36 36 35 35 35 34 33 33 33 33 33 33 33 33 33 33 33 32 32 31 31 31
24 24 24 24 24 24 25 24 22 23 27 29 30 31 34 35 34 33 33 34 34 35 36 37 37 37 40 43 42 41 40 39 39 40 40 39 39 38 38 37 37 37 36 35 34 34 34 33 32 32 33 33 33 33 34 34 34 34 33 32 31 31 31
24 24 24 24 25 24 24 22 21 21 24 26 28 31 33 34 33 33 33 32 33 34 36 36 38 40 42 42 41 39 38 38 39 39 39 39 39 39 38 38 37 36 36 35 34 33 33 32 31 31 32 32 33 34 34 34 34 34 33 32 31 31 32
21 22 24 25 24 23 21 17 17 19 21 25 28 31 31 32 32 32 32 33 33 34 35 37 40 43 43 41 39 38 38 38 38 38 39 39 39 39 38 37 37 36 35 34 34 33 32 31 31 31 31 32 33 33 33 33 33 34 33 32 32 31 32
22 23 24 23 21 21 18 14 14 17 20 24 28 30 31 32 33 33 33 34 33 34 35 38 41 43 41 39 38 38 37 37 37 38 38 39 39 38 37 37 35 34 34 33 33 33 32 31 31 31 31 32 32 32 32 32 32 33 33 33 32 32 32
24 24 23 21 20 19 14 11 12 17 20 24 28 29 31 32 33 34 35 34 33 34 36 39 40 40 39 38 37 37 37 36 36 37 37 38 37 37 36 35 34 34 34 33 33 33 33 32 32 31 30 30 30 31 31 31 31 33 33 33 32 32 32
23 20 18 18 17 16 11 8 12 17 19 24 28 29 31 33 33 34 35 36 35 35 36 37 38 38 38 38 37 36 35 35 34 35 35 36 35 35 35 34 34 34 34 33 32 32 32 32 30 29 28 27 27 28 30 30 30 31 32 32 32 32 32
25 20 16 13 12 11 8 6 10 15 18 22 28 30 31 33 34 35 37 38 38 37 35 33 34 37 37 36 35 35 34 33 33 33 33 33 33 33 33 33 33 32 32 31 30 30 32 32 30 28 26 25 26 26 28 29 30 30 31 31 30 31 32
28 24 17 12 11 9 6 3 6 11 17 21 24 27 28 31 34 37 38 39 38 34 31 32 34 35 35 34 34 34 33 32 32 32 31 31 31 31 32 32 32 32 32 31 30 28 29 29 28 27 26 25 25 25 25 25 26 28 29 28 27 29 30
29 26 21 16 11 6 2 2 3 5 12 19 22 23 25 29 34 38 38 36 35 32 30 32 34 33 34 33 32 32 32 30 30 29 28 29 29 30 31 32 32 31 29 29 29 28 25 23 22 22 23 23 23 23 22 21 21 24 27 26 25 26 28
30 28 25 20 13 8 5 1 4 4 8 14 19 21 22 25 30 35 35 32 32 32 30 31 33 33 33 32 31 31 30 28 27 26 27 27 28 29 29 30 31 30 27 25 25 24 23 21 19 18 19 20 21 22 22 20 18 20 24 25 24 25 26
30 28 26 23 18 14 9 3 3 6 7 10 13 15 17 19 23 29 31 29 30 31 30 30 32 31 30 29 29 28 28 27 26 25 25 26 26 27 27 28 29 29 27 24 22 20 20 21 20 20 20 20 20 21 21 20 18 17 20 24 24 23 24
31 28 26 24 22 18 14 9 5 6 8 9 10 10 12 14 16 21 27 28 28 29 30 31 31 29 28 28 27 27 27 28 27 25 25 26 26 25 25 26 27 27 27 27 24 22 21 20 20 22 22 21 21 21 21 21 20 18 18 22 24 24 24
30 28 26 24 23 22 18 14 10 8 8 9 10 10 11 12 14 16 22 27 27 27 29 31 30 28 27 27 27 28 28 28 27 26 25 24 25 25 24 25 26 26 27 28 26 24 23 22 22 23 22 21 21 21 21 21 21 19 18 19 21 23 23
29 28 27 23 22 23 22 19 16 13 10 9 8 8 9 11 13 14 19 24 26 26 27 29 28 26 25 25 25 25 25 26 25 25 24 22 23 26 26 26 26 26 25 25 25 25 24 24 24 23 22 21 21 21 21 21 20 19 18 18 18 19 19
29 29 27 21 19 23 25 23 22 19 17 14 10 9 8 8 10 11 14 17 20 22 24 24 25 24 22 22 21 20 22 23 22 22 23 21 22 26 29 29 27 27 25 24 25 25 26 25 23 22 21 20 22 22 20 19 19 19 19 19 17 16 17
29 30 28 22 19 20 23 24 24 23 21 18 15 13 11 10 9 8 8 11 12 15 17 18 20 22 19 17 18 19 21 22 22 23 24 23 22 26 29 29 28 28 27 26 25 24 24 25 25 24 21 19 20 21 18 17 18 18 18 19 18 18 20
26 28 27 25 21 19 20 22 21 20 20 19 17 17 15 14 13 10 8 9 10 11 13 14 16 17 15 14 17 19 18 18 20 21 20 22 26 27 27 26 28 29 29 29 28 26 25 24 24 24 23 22 20 19 17 17 19 20 19 20 20 21 23
Wind_Direction
205 203 201 198 196 195 195 195 195 195 195 195 196 197 197 198 200 204 212 220 223 222 221 219 219 219 219 220 221 222 223 224 226 227 229 230 232 233 234 234 234 234 234 235 234 234 234 232 229 230 229 225 224 223 221 220 218 216 216 219 221 224 230
205 204 203 199 197 198 198 197 196 195 195 195 196 197 197 200 203 206 213 220 222 222 221 219 218 219 219 219 219 220 221 221 223 224 226 228 229 230 231 231 231 232 232 232 233 234 234 233 230 229 227 225 224 224 223 220 216 216 217 219 222 224 228
207 205 203 199 198 200 199 197 196 196 197 195 195 199 202 205 209 212 215 219 221 221 220 219 218 218 219 218 218 219 219 219 221 222 223 225 227 227 227 228 227 229 230 228 230 233 234 232 229 227 225 223 223 222 221 218 215 215 217 220 224 228 233
208 207 205 201 200 201 199 197 197 198 197 196 200 206 209 210 213 214 216 219 221 220 219 219 218 218 218 218 218 219 219 219 220 221 222 223 225 224 224 225 225 226 228 227 227 230 232 230 228 226 224 222 222 221 219 217 216 217 219 223 226 231 237
209 207 205 202 202 202 200 198 198 198 198 198 203 208 209 209 210 212 216 220 222 221 219 218 218 218 219 218 219 219 220 220 220 221 222 223 224 224 223 224 225 224 225 226 226 227 228 228 227 227 224 221 220 220 219 218 218 220 220 223 227 231 236
210 206 206 205 205 205 202 201 201 200 201 199 199 201 201 203 207 210 214 219 221 221 220 219 218 217 217 217 218 219 220 220 220 221 223 223 224 224 224 224 225 224 224 225 227 227 227 227 227 228 226 222 221 221 221 221 221 222 222 223 227 231 233
210 207 208 209 209 209 206 204 203 202 202 199 197 197 195 198 203 206 210 215 217 218 218 218 217 217 217 217 217 218 218 219 219 220 222 223 224 225 225 224 224 225 224 224 226 227 227 226 225 227 228 225 224 224 224 225 224 224 225 224 227 230 232
209 208 208 208 211 213 211 207 203 201 200 196 194 194 194 196 198 200 205 209 212 213 214 214 215 217 218 217 217 218 218 219 219 220 221 222 224 225 225 224 224 224 224 224 225 225 226 226 225 226 227 226 226 225 226 227 226 225 227 227 228 231 234
209 207 205 207 212 215 212 206 202 199 196 193 193 194 194 194 195 199 202 204 205 209 212 211 211 214 217 218 218 218 218 220 220 220 220 221 223 224 224 224 224 223 223 223 224 224 224 224 225 226 226 226 227 227 227 228 227 226 228 229 231 233 235
207 203 203 208 213 214 210 204 199 196 193 192 193 194 193 194 195 198 198 198 201 206 208 207 205 209 215 219 218 218 219 219 220 220 220 220 222 223 222 222 223 224 223 222 222 223 222 222 224 225 225 226 227 228 229 229 229 228 229 230 231 233 235
204 201 202 209 213 211 206 200 195 193 191 192 193 193 193 194 196 196 196 198 201 202 202 201 201 203 211 217 218 217 219 219 218 219 220 219 220 220 220 219 219 224 226 222 221 222 222 221 221 224 225 225 226 228 229 230 231 231 231 231 232 233 234
196 199 204 213 215 211 204 198 194 191 190 192 193 192 193 194 195 195 196 198 199 198 197 198 198 199 205 213 215 216 219 219 217 217 218 218 218 217 217 216 215 221 226 225 221 221 223 222 221 223 225 225 226 228 230 231 232 232 232 232 233 233 234
172 199 211 217 215 210 203 199 196 192 193 195 195 193 194 195 195 195 196 196 196 196 195 195 196 197 201 208 212 214 217 218 217 217 216 217 217 214 214 214 213 215 222 226 224 221 222 224 223 223 225 226 227 228 230 232 233 234 234 234 234 234 234
200 203 211 211 208 204 199 199 197 194 196 198 196 194 195 196 196 195 195 195 194 194 194 194 195 196 200 205 210 213 217 217 217 217 216 217 218 215 213 213 212 212 218 225 226 222 222 224 225 225 225 227 229 229 231 234 235 236 236 235 235 235 236
326 249 217 208 205 202 200 200 197 197 202 202 197 196 197 196 196 195 195 194 193 193 194 194 194 195 198 204 210 215 217 216 216 217 217 217 219 218 216 215 215 214 217 224 227 224 222 223 226 228 228 228 229 231 233 235 236 237 236 236 235 235 236
348 347 332 281 222 210 207 205 202 203 208 207 200 197 197 197 196 195 195 194 193 193 193 193 194 196 199 206 213 217 217 215 216 216 216 217 218 218 218 219 220 221 222 226 227 225 223 222 224 228 230 231 231 231 233 235 237 238 237 236 236 235 236
345 344 338 332 310 252 225 216 210 208 211 214 210 202 198 197 197 197 196 194 193 193 192 193 196 200 204 208 212 215 216 217 217 217 216 217 218 218 218 219 222 223 224 226 227 225 224 224 225 226 229 231 231 231 233 236 238 239 238 236 235 235 236
337 335 331 327 321 304 271 240 222 212 213 218 215 206 201 198 197 196 196 195 194 193 192 193 197 202 207 209 210 214 218 218 217 217 217 217 217 218 218 219 221 223 224 225 225 225 225 225 226 226 226 228 230 230 232 235 238 240 239 237 235 234 235
331 328 326 322 316 307 293 270 242 223 216 216 212 207 205 202 199 199 198 196 194 191 191 193 195 202 207 208 211 217 219 218 217 217 217 216 217 217 218 218 220 222 223 224 225 226 227 227 227 227 226 227 228 229 230 234 238 239 239 237 235 234 234
327 323 320 317 312 305 297 283 260 235 222 217 213 209 206 203 202 201 197 193 191 190 191 192 192 200 208 211 214 218 220 219 218 217 217 216 216 217 217 218 219 221 223 225 226 227 228 228 229 229 228 228 229 229 230 232 236 239 238 237 235 234 233
325 320 314 311 308 305 299 287 267 243 227 220 214 207 201 199 199 196 191 191 191 190 191 191 191 199 209 213 215 219 220 219 218 218 218 218 217 218 218 218 219 221 223 225 228 229 230 230 231 232 232 230 230 231 231 231 235 238 239 237 236 235 234
323 315 309 307 304 301 296 285 267 246 230 221 213 203 198 197 194 192 190 190 190 189 190 191 193 200 209 214 216 218 219 218 218 218 218 218 218 219 219 219 220 221 223 225 227 230 232 232 232 234 235 234 233 233 233 232 233 237 239 238 236 235 235
323 317 309 305 300 297 294 282 263 244 228 217 208 201 198 195 191 189 190 189 189 188 189 192 197 204 212 216 217 218 218 217 218 218 218 219 219 219 220 220 221 221 222 224 226 228 232 233 233 235 236 236 235 235 234 233 233 235 237 238 236 234 234
329 323 312 305 301 301 299 282 254 234 218 209 203 199 195 191 187 186 186 187 188 188 188 194 203 210 216 219 218 217 217 217 217 217 217 218 218 219 220 220 221 221 222 224 225 226 229 233 233 234 235 237 237 236 235 234 235 235 236 236 235 234 234
336 328 314 307 306 305 302 284 248 224 210 203 197 193 190 186 184 184 184 185 187 187 190 199 208 215 219 219 217 218 218 218 218 217 218 218 219 219 220 220 221 221 221 223 224 225 227 230 231 231 233 236 238 239 237 236 237 238 237 235 235 234 234
339 331 318 314 312 307 301 278 236 212 202 198 193 188 185 182 181 183 184 184 185 189 197 208 215 218 219 217 217 217 218 218 218 218 219 220 220 221 221 221 221 222 222 222 223 224 225 227 229 230 232 234 237 240 240 239 239 240 239 236 235 234 233
349 338 325 320 318 312 302 266 224 209 201 195 189 184 181 181 182 184 185 185 189 197 205 212 217 219 218 216 216 217 218 218 218 219 220 221 222 222 222 223 222 223 224 223 223 225 226 226 227 228 230 232 234 238 240 240 240 240 240 238 236 234 233
359 355 344 337 333 325 309 261 222 214 204 193 187 185 184 184 184 185 189 194 201 206 206 208 214 218 217 215 214 215 217 217 217 218 220 221 221 221 222 224 223 224 225 224 222 224 226 227 225 224 226 228 230 233 239 242 242 242 241 240 237 234 233
4 7 6 3 352 339 321 281 232 213 202 193 189 188 187 185 185 190 197 204 206 204 201 205 214 217 215 212 211 212 215 216 216 217 218 218 219 219 221 223 222 222 223 223 220 220 224 226 226 225 226 228 231 233 235 238 241 241 241 239 236 233 231
11 14 18 19 9 4 8 288 262 203 191 190 187 186 185 185 190 198 203 204 203 199 198 206 213 214 212 211 210 210 212 214 215 215 215 215 217 218 220 222 222 221 222 224 223 221 222 224 224 225 227 227 229 231 231 231 236 239 240 238 234 231 230
10 12 21 30 35 50 58 303 230 175 168 179 181 183 185 187 196 202 202 201 204 202 199 204 211 213 212 210 208 208 211 212 212 213 213 213 215 216 217 219 221 221 221 222 223 222 221 222 220 219 222 223 224 226 226 227 230 235 237 235 232 232 232
8 15 27 37 43 52 57 58 192 173 159 164 171 180 186 188 198 204 203 203 206 205 201 205 211 212 210 209 208 207 208 209 210 210 210 212 214 215 216 217 220 222 222 220 218 215 215 217 216 215 218 220 221 223 224 225 226 229 232 231 229 230 232
7 17 28 34 37 45 59 73 112 157 160 156 158 167 178 183 190 199 204 207 208 205 203 208 212 211 209 208 207 206 207 208 210 209 209 211 213 215 217 220 221 223 224 223 220 216 214 213 212 213 217 219 222 223 223 224 224 222 227 231 231 229 230
3 16 29 37 41 44 51 65 87 120 147 156 159 159 166 174 178 187 201 208 210 209 208 210 212 212 210 208 207 207 207 207 208 208 208 211 212 213 216 219 221 223 226 227 224 219 217 217 216 215 216 218 221 221 221 222 221 220 222 228 230 229 227
4 16 26 33 44 47 49 56 69 83 102 126 148 158 165 178 187 194 203 208 211 212 213 215 216 215 212 208 206 205 207 208 209 210 208 207 210 213 212 212 214 217 220 225 227 224 222 223 224 221 218 216 218 219 219 221 221 221 221 221 222 226 227
6 15 23 34 49 55 55 60 65 70 80 95 113 128 138 159 181 194 203 208 213 215 214 215 215 213 210 207 204 204 208 208 206 209 209 204 208 218 219 215 215 215 213 215 222 225 223 222 221 220 217 215 218 220 220 221 222 221 221 222 223 225 225
4 9 19 35 50 54 55 61 64 66 70 77 88 98 110 125 135 149 174 188 197 204 206 208 208 205 201 199 199 204 211 211 208 212 215 209 210 223 226 223 222 222 220 218 221 224 225 223 220 220 219 216 218 221 222 225 226 222 221 223 221 217 215
0 2 15 33 46 53 55 54 53 57 62 65 73 82 93 108 116 122 146 164 168 177 185 191 196 195 191 193 198 201 206 210 210 212 214 212 214 223 228 228 228 228 227 227 226 226 228 228 225 223 224 224 223 223 223 225 227 224 220 219 216 214 213